EW9034 Weather Reports


time (UTC)temp
C
wind
direction
speed
KPH
gust
KPH
rain 1hr
cm
rain 24hr
cm
rain mn
cm
humidity
%
barometer
mb
20260507141602 11 219 9.7 16.1 0.00 0.00 0.00 58 1009.2
20260507140113 11 213 11.3 16.1 0.00 0.00 0.00 58 1009.2
20260507134553 10 217 11.3 14.5 0.00 0.00 0.00 65 1009.1
20260507133049 8 221 6.4 9.7 0.00 0.00 0.00 70 1009.2
20260507131600 8 221 6.4 12.9 0.00 0.00 0.00 67 1009.1
20260507130053 8 211 9.7 16.1 0.00 0.00 0.00 68 1009.2
20260507124552 7 206 8.0 9.7 0.00 0.00 0.00 69 1009.1
20260507123052 7 206 6.4 9.7 0.00 0.00 0.00 69 1009.1
20260507121542 8 205 6.4 9.7 0.00 0.00 0.00 70 1009.2
20260507120040 8 205 6.4 11.3 0.00 0.00 0.00 70 1009.2
20260507114543 7 205 8.0 9.7 0.00 0.00 0.00 71 1009.1
20260507113039 7 203 6.4 11.3 0.00 0.00 0.00 72 1009.2
20260507111535 7 202 4.8 6.4 0.00 0.00 0.00 71 1008.9
20260507110034 7 202 4.8 14.5 0.00 0.00 0.00 70 1008.8
20260507104532 8 263 9.7 14.5 0.00 0.00 0.00 69 1008.7
20260507103030 8 331 8.0 12.9 0.00 0.00 0.00 65 1009.1
20260507101534 7 345 8.0 14.5 0.00 0.00 0.00 59 1009.1
20260507100032 8 360 1.6 4.8 0.00 0.00 0.00 56 1009.2
20260507094526 8 9 3.2 6.4 0.00 0.00 0.00 58 1009.0
20260507093035 8 5 0.0 6.4 0.00 0.00 0.00 55 1009.0
20260507091522 8 5 1.6 6.4 0.00 0.00 0.00 57 1008.7
20260507090029 8 5 0.0 8.0 0.00 0.00 0.00 57 1008.9
20260507084517 8 11 4.8 6.4 0.00 0.00 0.00 57 1008.6
20260507083031 8 24 1.6 3.2 0.00 0.00 0.00 57 1008.7
20260507081512 8 30 4.8 8.0 0.00 0.00 0.00 54 1008.3
20260507080009 8 25 0.0 12.9 0.00 0.00 0.00 53 1008.3
20260507074518 9 23 3.2 6.4 0.00 0.00 0.00 50 1008.2
20260507073003 9 25 4.8 14.5 0.00 0.00 0.00 44 1008.1
20260507071500 10 58 3.2 6.4 0.00 0.00 0.00 48 1007.9
20260507070058 10 71 0.0 1.6 0.00 0.00 0.00 45 1007.7
20260507064559 10 69 1.6 8.0 0.00 0.00 0.00 38 1007.4
20260507063058 10 69 8.0 14.5 0.00 0.00 0.00 36 1008.1
20260507061551 11 95 4.8 11.3 0.00 0.00 0.00 35 1007.8
20260507060048 11 94 12.9 19.3 0.00 0.00 0.00 33 1007.6
20260507054552 11 80 11.3 17.7 0.00 0.00 0.00 33 1007.7
20260507053048 10 63 11.3 19.3 0.00 0.00 0.00 36 1008.0
20260507051546 11 40 14.5 20.9 0.00 0.00 0.00 34 1008.4
20260507050045 11 51 11.3 16.1 0.00 0.00 0.00 34 1008.2
20260507044545 11 61 8.0 17.7 0.00 0.00 0.00 34 1008.3
20260507043044 11 53 9.7 14.5 0.00 0.00 0.00 34 1008.4
20260507041543 12 47 9.7 17.7 0.00 0.00 0.00 32 1008.5
20260507040056 12 76 11.3 16.1 0.00 0.00 0.00 32 1008.6
20260507034553 12 116 8.0 14.5 0.00 0.00 0.00 30 1008.4
20260507033043 12 118 8.0 24.1 0.00 0.00 0.00 29 1008.3
20260507031541 12 93 16.1 24.1 0.00 0.00 0.00 30 1007.2
20260507030041 13 64 17.7 29.0 0.00 0.00 0.00 28 1007.2
20260507024540 13 90 22.5 32.2 0.00 0.00 0.00 28 1006.6
20260507023038 14 75 12.9 27.4 0.00 0.00 0.00 26 1007.0
20260507021538 15 77 14.5 24.1 0.00 0.00 0.00 26 1007.2
20260507020037 15 71 12.9 24.1 0.00 0.00 0.00 25 1007.4
20260507014537 16 80 16.1 22.5 0.00 0.00 0.00 25 1007.0
20260507013038 16 74 14.5 25.7 0.00 0.00 0.00 25 1006.8
20260507011539 17 86 19.3 27.4 0.00 0.00 0.00 25 1006.8
20260507010034 18 67 16.1 27.4 0.00 0.00 0.00 24 1007.0
20260507004533 18 62 16.1 24.1 0.00 0.00 0.00 24 1007.1
20260507003031 18 63 16.1 24.1 0.00 0.00 0.00 24 1007.2
20260507001541 18 78 12.9 22.5 0.00 0.00 0.00 26 1007.2
20260507000031 18 44 12.9 20.9 0.00 0.00 0.00 24 1007.2
20260506234541 19 65 12.9 22.5 0.00 0.00 0.00 24 1007.3
20260506233029 19 55 8.0 20.9 0.00 0.00 0.00 23 1007.3
20260506231531 20 71 14.5 19.3 0.00 0.00 0.00 24 1007.6
20260506230025 20 40 8.0 16.1 0.00 0.00 0.00 23 1007.7
20260506224527 20 76 3.2 16.1 0.00 0.00 0.00 24 1008.0
20260506223018 20 167 3.2 8.0 0.00 0.00 0.00 23 1008.3
20260506221516 19 169 9.7 14.5 0.00 0.00 0.00 23 1008.6
20260506220014 20 186 8.0 16.1 0.00 0.00 0.00 22 1008.8
20260506214512 19 298 6.4 20.9 0.00 0.00 0.00 25 1009.1
20260506213018 18 165 4.8 22.5 0.00 0.00 0.00 25 1009.3
20260506211509 18 246 11.3 17.7 0.00 0.00 0.00 23 1009.7
20260506210005 18 166 6.4 14.5 0.00 0.00 0.00 25 1010.0
20260506204504 18 237 9.7 19.3 0.00 0.00 0.00 25 1010.2
20260506203001 17 244 6.4 17.7 0.00 0.00 0.00 25 1010.5
20260506201558 16 260 3.2 16.1 0.00 0.00 0.00 26 1010.8
20260506200056 16 207 6.4 22.5 0.00 0.00 0.00 26 1011.0
20260506194553 16 227 4.8 19.3 0.00 0.00 0.00 25 1011.3
20260506193050 15 247 3.2 19.3 0.00 0.00 0.00 27 1011.7
20260506191551 16 202 9.7 25.7 0.00 0.00 0.00 30 1011.9
20260506190049 15 220 1.6 14.5 0.00 0.00 0.00 26 1012.4
20260506184553 15 167 3.2 19.3 0.00 0.00 0.00 26 1012.6
20260506183041 15 175 9.7 17.7 0.00 0.00 0.00 29 1012.8
20260506181538 14 215 8.0 22.5 0.00 0.00 0.00 27 1013.1
20260506180037 14 206 4.8 17.7 0.00 0.00 0.00 27 1013.3
20260506174532 13 144 9.7 14.5 0.00 0.00 0.00 28 1013.6
20260506173036 13 159 8.0 17.7 0.00 0.00 0.00 29 1013.9
20260506171524 12 243 11.3 20.9 0.00 0.00 0.00 29 1014.3
20260506170121 12 228 8.0 17.7 0.00 0.00 0.00 30 1014.5
20260506164518 12 210 11.3 17.7 0.00 0.00 0.00 31 1014.6
20260506163036 12 192 12.9 19.3 0.00 0.00 0.00 32 1014.9
20260506161515 12 191 12.9 24.1 0.00 0.00 0.00 34 1015.3
20260506160010 11 197 12.9 24.1 0.00 0.00 0.00 34 1015.5
20260506154524 11 233 12.9 25.7 0.00 0.00 0.00 35 1015.7
20260506153002 11 185 12.9 20.9 0.00 0.00 0.00 35 1016.0
20260506151558 10 184 12.9 22.5 0.00 0.00 0.00 36 1016.2
20260506150055 9 188 12.9 20.9 0.00 0.00 0.00 38 1016.4
20260506144550 7 294 3.2 8.0 0.00 0.00 0.00 50 1016.7
20260506143046 6 296 6.4 11.3 0.00 0.00 0.00 52 1016.9